IRIDIUM 17 (24870 NORAD) Tracking and Keplerian Element Data

This shows tracking and keplerian element data for the satellite.

Feedback or suggestion? Click here.




ElementValue
Catalog24870
NameIRIDIUM 17
Epoch Orbit44442
Epoch Day34.83104163
Epoch Year2025
RAAN290.864
Inclination86.395
Eccentricity0.0003737
Argument of Perigee87.6602
Mean Anonmoly272.5023
Mean Motion14.37615166
Decay Rate8.68E-06
L11 24870U 97034B 25034.83104163 .00000868 00000+0 28289-3 0 9997
L22 24870 86.3950 290.8640 0003737 87.6602 272.5023 14.37615166444421



Live tracking and technical data element details for IRIDIUM 17 (NORAD 24870). IRIDIUM 17 can be tracked NOW for your location showing map with azimuth and elevation plus other details from your city location.







IsCatalogInMostPopularTable: catalog: 24870, numindb: 414
Update: records affected: 1



GetName: 24870 IRIDIUM 17

Hit Count: updated at: Thu, 15 May 2025 10:34:41 GMT